Regional Weather Roundup
Issued by NWS

Home | Current Version | Previous Version | Text Only | Print | Product List | Glossary Off
Versions: 1 2 3 4 5 6 7 8 9 10 11 12 13 14 15 16 17 18 19 20 21 22 23 24 25 26 27 28 29 30 31 32 33 34 35 36 37 38 39 40 41 42 43 44 45 46 47 48 49 50

000
ASUS45 KTFX 281610
RWRMT
MONTANA REGIONAL WEATHER ROUNDUP
NATIONAL WEATHER SERVICE GREAT FALLS MT
1000 AM MDT FRI AUG 28 2015

NOTE: "FAIR" INDICATES FEW OR NO CLOUDS BELOW 12000 FEET WITH NO
SIGNIFICANT WEATHER AND/OR OBSTRUCTIONS TO VISIBILITY.

MTZ001>007-043-281700-
WEST OF THE DIVIDE

CITY           SKY/WX    TMP DP  RH WIND       PRES   REMARKS
KALISPELL      MOSUNNY   67  44  43 CALM      30.02F SMOKE
MISSOULA       CLOUDY    59  43  55 CALM      30.09F HAZE
BUTTE          CLOUDY    56  44  64 CALM      30.24F HAZE
MULLAN PASS      N/A     61  38  42 VRB3      30.15F
DEER LODGE       N/A     61  46  59 CALM      30.21S
EUREKA           N/A     75  41  29 S13       29.98F
HAMILTON         N/A     63  48  59 N3        30.08F
LIBBY            N/A     63  43  48 CALM      30.01F
PLAINS           N/A     61  43  51 CALM      30.02F
$$

MTZ008-052>055-281700-
SOUTHWEST MONTANA

CITY           SKY/WX    TMP DP  RH WIND       PRES   REMARKS
BOZEMAN        PTSUNNY   64  49  57 CALM      30.19S
DILLON         PTSUNNY   63  44  50 SW9       30.22F HAZE
W YELLOWSTONE  SUNNY     54  41  62 CALM      30.36S
$$

MTZ009-010-012-014-046-048-049-054-281700-
EAST SLOPES AND CENTRAL MONTANA

CITY           SKY/WX    TMP DP  RH WIND       PRES   REMARKS
CUT BANK       CLOUDY    73  37  27 W22       30.03S HAZE
GREAT FALLS    CLOUDY    76  37  24 SW16      30.06R HAZE
MALMSTROM AFB  PTSUNNY   77  37  23 SW15      30.05S HAZE
HELENA         PTSUNNY   66  44  45 N3        30.14F SMOKE
CONRAD           N/A     69  47  45 S5        30.06S
$$

MTZ011-013-016-021-045-047-050-051-281700-
NORTH CENTRAL MONTANA

CITY           SKY/WX    TMP DP  RH WIND       PRES   REMARKS
HAVRE          CLOUDY    73  43  33 SW13      29.98S HAZE
LEWISTOWN      PTSUNNY   75  43  31 VRB3      30.10S HAZE
N BAR RANCH      N/A     79  32  18 NW13      30.14R
CHINOOK          N/A     72  48  43 W7        29.96R
FORT BENTON      N/A     75  41  29 SW7       30.02S
$$

MTZ017>020-022>027-061-062-281700-
NORTHEAST MONTANA

CITY           SKY/WX    TMP DP  RH WIND       PRES   REMARKS
GLASGOW        CLOUDY    66  52  60 SW5       29.95R HAZE
JORDAN           N/A     73  46  38 W6        29.99S
SIDNEY         SUNNY     70  59  68 S7        29.93R
WOLF POINT     MOSUNNY   70  55  59 SW7       29.92F
MALTA            N/A     70  46  42 SW8       29.92S
PLENTYWOOD       N/A     72  54  53 CALM      29.91S
POPLAR           N/A     72  54  53 SW7       29.93S
$$

MTZ028>42-056>058-281700-
SOUTHCENTRAL AND SOUTHEAST MONTANA

CITY           SKY/WX    TMP DP  RH WIND       PRES   REMARKS
BAKER          SUNNY     75  49  39 W12       30.02R
BILLINGS       PTSUNNY   70  48  45 SW18      30.12S
LIVINGSTON     PTSUNNY   76  41  28 SW13      30.15F
MILES CITY     MOSUNNY   77  46  33 W16       29.99F HAZE
EKALAKA          N/A     74  44  34 W12       30.04R
FORSYTH          N/A     73  48  40 W12       30.03R
LAUREL           N/A     70  48  45 SW7       30.10S
$$

REGIONAL REPORTS...DAKOTAS

CITY           SKY/WX    TMP DP  RH WIND       PRES   REMARKS
WILLISTON      SUNNY     70  60  70 S6        29.91S
MINOT          MOSUNNY   76  61  59 VRB6      29.86R
DICKINSON      SUNNY     75  55  49 W9        29.94R
CROSBY           N/A     72  63  73 CALM      29.90S
BISMARCK       SUNNY     74  63  68 SW8       29.91S
GRAND FORKS    CLOUDY    71  65  81 SE7       29.90R
FARGO          SUNNY     75  66  73 S14       29.93R
BUFFALO SD       N/A     73  54  51 W6        29.96R
RAPID CITY     SUNNY     75  57  53 W3        30.04S
$$

REGIONAL REPORTS...WYOMING/IDAHO/WASHINGTON

CITY           SKY/WX    TMP DP  RH WIND       PRES   REMARKS
GILLETTE       SUNNY     75  47  36 W12       30.15R
SHERIDAN       SUNNY     76  50  40 CALM      30.14R
BUFFALO WY     SUNNY     79  40  24 N7        30.21R
CODY           SUNNY     68  45  42 S6        30.22F
YELLOWSTONE LA   N/A     53  47  79 SE3       30.44F
IDAHO FALLS    SUNNY     62  47  57 N5        30.24F
SALMON         CLOUDY    59  43  55 CALM      30.18F
BOISE          PTSUNNY   73  43  33 E6        30.05S
SPOKANE        CLOUDY    69  42  37 S8        29.97R
$$

REGIONAL REPORTS...ALBERTA

CITY           SKY/WX    TMP DP  RH WIND       PRES   REMARKS
EDMONTON       PTSUNNY   66  52  59 SW8       29.78S
CALGARY        PTSUNNY   63  43  48 SW6       29.92S SMOKE
LETHBRIDGE     CLOUDY    72  41  33 S7        29.95S SMOKE
MEDICINE HAT   CLOUDY    70  45  40 SW10      29.90F SMOKE
WATERTON GATE    N/A     72  39  30 S7          N/A
CARDSTON         N/A     72  41  33 S7          N/A
MILK RIVER       N/A     72  41  33 W5          N/A
ONEFOUR          N/A     68  43  40 W2          N/A
$$

REGIONAL REPORTS...SASKATCHEWAN

CITY           SKY/WX    TMP DP  RH WIND       PRES   REMARKS
SWIFT CURRENT  SUNNY     64  50  59 W12       29.90R HAZE
REGINA         CLOUDY    70  61  73 E5        29.88R
SASKATOON      PTSUNNY   70  61  73 CALM      29.88F
CYPRESS HILLS    N/A     72  37  28 W9          N/A
VAL MARIE        N/A     72  43  35 W9          N/A
ROCKGLEN         N/A     70  48  46 SW9         N/A
ASSINIBOIA       N/A     68  59  73 S12G21      N/A
$$


USA.gov is the U.S. government's official web portal to all federal, state and local government web resources and services.